ACA2077 CYEG-CYVR

Flight info

Callsign ACA2077
Flight time N/A
Altitude 36000
Route ANDIE Q860 MERYT DCT BOOTH CANUC5
Aircraft B38M/M-SDE1FGHILORVWXY/HB1

Departure

Time N/A
Airport Edmonton International Airport (CYEG)

Arrival

Time 2026-05-03 20:53
Airport Vancouver International Airport (CYVR)
Time Latitude Longitude Altitude Speed Heading
2026-05-03 20:15 51.00203 -118.85693 36064 ft 465 kts 237°
2026-05-03 20:15 50.96258 -118.93831 36063 ft 465 kts 237°
2026-05-03 20:16 50.92306 -119.01960 36070 ft 466 kts 237°
2026-05-03 20:16 50.88350 -119.10073 36070 ft 465 kts 237°
2026-05-03 20:17 50.84412 -119.18121 36073 ft 466 kts 237°
2026-05-03 20:17 50.80443 -119.26208 36071 ft 465 kts 237°
2026-05-03 20:18 50.76466 -119.34288 36202 ft 466 kts 236°
2026-05-03 20:18 50.74460 -119.38354 36084 ft 472 kts 235°
2026-05-03 20:18 50.72435 -119.42452 36035 ft 474 kts 235°
2026-05-03 20:19 50.68365 -119.50665 36066 ft 475 kts 235°
2026-05-03 20:19 50.64296 -119.58855 36066 ft 475 kts 235°
2026-05-03 20:20 50.60232 -119.67005 36069 ft 470 kts 234°
2026-05-03 20:20 50.56193 -119.75084 36074 ft 470 kts 234°
2026-05-03 20:21 50.52142 -119.83159 36075 ft 471 kts 234°
2026-05-03 20:21 50.48077 -119.91238 36080 ft 471 kts 234°
2026-05-03 20:22 50.44006 -119.99304 36069 ft 471 kts 234°
2026-05-03 20:22 50.39930 -120.07355 36072 ft 472 kts 234°
2026-05-03 20:23 50.35836 -120.15417 36076 ft 472 kts 234°
2026-05-03 20:23 50.31769 -120.23399 36077 ft 472 kts 234°
2026-05-03 20:24 50.27670 -120.31422 36078 ft 472 kts 234°
2026-05-03 20:24 50.23561 -120.39439 36074 ft 473 kts 234°
2026-05-03 20:25 50.19476 -120.47385 36082 ft 466 kts 233°
2026-05-03 20:25 50.15421 -120.55248 36084 ft 465 kts 233°
2026-05-03 20:26 50.11359 -120.63104 36073 ft 466 kts 233°
2026-05-03 20:26 50.07289 -120.70954 36076 ft 466 kts 233°
2026-05-03 20:26 50.05253 -120.74873 35567 ft 467 kts 233°
2026-05-03 20:27 50.03185 -120.78848 34600 ft 477 kts 233°
2026-05-03 20:27 50.01080 -120.82888 33591 ft 485 kts 233°
2026-05-03 20:27 49.98944 -120.86982 32547 ft 491 kts 233°
2026-05-03 20:27 49.96779 -120.91125 31526 ft 495 kts 232°
2026-05-03 20:28 49.94605 -120.95294 30641 ft 496 kts 234°
2026-05-03 20:28 49.92765 -120.99736 30091 ft 486 kts 242°
2026-05-03 20:28 49.91078 -121.04231 29561 ft 477 kts 242°
2026-05-03 20:28 49.89405 -121.08625 29133 ft 468 kts 242°
2026-05-03 20:29 49.87766 -121.12928 28734 ft 459 kts 242°
2026-05-03 20:29 49.86156 -121.17148 28357 ft 450 kts 242°
2026-05-03 20:29 49.84574 -121.21289 27965 ft 443 kts 242°
2026-05-03 20:29 49.83017 -121.25357 27563 ft 436 kts 241°
2026-05-03 20:30 49.81478 -121.29372 27143 ft 430 kts 241°
2026-05-03 20:30 49.79963 -121.33323 26721 ft 424 kts 241°
2026-05-03 20:30 49.78487 -121.37160 26338 ft 418 kts 241°
2026-05-03 20:30 49.76998 -121.41024 26080 ft 408 kts 241°
2026-05-03 20:31 49.75564 -121.44744 26064 ft 394 kts 241°
2026-05-03 20:31 49.74186 -121.48312 26054 ft 380 kts 241°
2026-05-03 20:31 49.72848 -121.51773 25816 ft 373 kts 241°
2026-05-03 20:31 49.71521 -121.55200 25475 ft 370 kts 241°
2026-05-03 20:32 49.70206 -121.58593 25154 ft 366 kts 241°
2026-05-03 20:32 49.68904 -121.61948 24819 ft 363 kts 241°
2026-05-03 20:32 49.67611 -121.65274 24513 ft 359 kts 241°
2026-05-03 20:32 49.66347 -121.68523 24201 ft 356 kts 241°
2026-05-03 20:33 49.65060 -121.71828 23890 ft 353 kts 241°
2026-05-03 20:33 49.64223 -121.73971 23659 ft 351 kts 240°
2026-05-03 20:33 49.62967 -121.77190 23292 ft 348 kts 240°
2026-05-03 20:33 49.61317 -121.81410 22754 ft 346 kts 240°
2026-05-03 20:34 49.60078 -121.84574 22368 ft 344 kts 240°
2026-05-03 20:34 49.58843 -121.87725 21951 ft 342 kts 240°
2026-05-03 20:34 49.58014 -121.89837 21700 ft 341 kts 240°
2026-05-03 20:34 49.56811 -121.92899 21310 ft 339 kts 240°
2026-05-03 20:35 49.55571 -121.96056 20931 ft 337 kts 240°
2026-05-03 20:35 49.54359 -121.99136 20568 ft 336 kts 240°
2026-05-03 20:35 49.53152 -122.02201 20187 ft 334 kts 240°
2026-05-03 20:35 49.51940 -122.05252 19776 ft 333 kts 239°
2026-05-03 20:36 49.50726 -122.08274 19456 ft 331 kts 239°
2026-05-03 20:36 49.49519 -122.11283 19085 ft 330 kts 239°
2026-05-03 20:36 49.48315 -122.14281 18748 ft 329 kts 239°
2026-05-03 20:36 49.47116 -122.17273 18421 ft 328 kts 240°
2026-05-03 20:37 49.45936 -122.20256 18057 ft 326 kts 240°
2026-05-03 20:37 49.44758 -122.23224 17701 ft 324 kts 240°
2026-05-03 20:37 49.43590 -122.26168 17345 ft 322 kts 240°
2026-05-03 20:37 49.42428 -122.29090 16999 ft 319 kts 239°
2026-05-03 20:38 49.41282 -122.31966 16794 ft 312 kts 240°
2026-05-03 20:38 49.40157 -122.34750 16642 ft 303 kts 236°
2026-05-03 20:38 49.38831 -122.37147 16482 ft 293 kts 229°
2026-05-03 20:38 49.37474 -122.39471 15925 ft 293 kts 229°
2026-05-03 20:39 49.36127 -122.41792 15445 ft 289 kts 229°
2026-05-03 20:39 49.34792 -122.44073 14972 ft 286 kts 229°
2026-05-03 20:39 49.33469 -122.46330 14490 ft 284 kts 229°
2026-05-03 20:39 49.32153 -122.48574 14032 ft 280 kts 228°
2026-05-03 20:40 49.30855 -122.50785 13511 ft 278 kts 228°
2026-05-03 20:40 49.29565 -122.52984 12993 ft 276 kts 229°
2026-05-03 20:40 49.28285 -122.55168 12474 ft 275 kts 228°
2026-05-03 20:40 49.27012 -122.57341 11948 ft 273 kts 228°
2026-05-03 20:41 49.25747 -122.59500 11462 ft 271 kts 228°
2026-05-03 20:41 49.24487 -122.61643 10954 ft 270 kts 227°
2026-05-03 20:41 49.22984 -122.63334 10580 ft 269 kts 201°
2026-05-03 20:41 49.21169 -122.63798 10222 ft 265 kts 175°
2026-05-03 20:42 49.19355 -122.63266 9721 ft 265 kts 166°
2026-05-03 20:42 49.17579 -122.62547 9209 ft 263 kts 165°
2026-05-03 20:42 49.15834 -122.61754 8698 ft 262 kts 155°
2026-05-03 20:42 49.14350 -122.60197 8214 ft 259 kts 133°
2026-05-03 20:43 49.13379 -122.57923 7850 ft 255 kts 110°
2026-05-03 20:43 49.13048 -122.55280 7445 ft 254 kts 88°
2026-05-03 20:43 49.13397 -122.52706 7082 ft 251 kts 66°
2026-05-03 20:43 49.14390 -122.50503 6730 ft 249 kts 43°
2026-05-03 20:44 49.15831 -122.49139 6533 ft 241 kts 19°
2026-05-03 20:44 49.17442 -122.48807 6424 ft 232 kts 355°
2026-05-03 20:44 49.19007 -122.49537 6349 ft 244 kts 331°
2026-05-03 20:44 49.20315 -122.51243 6298 ft 252 kts 308°
2026-05-03 20:45 49.21118 -122.53648 6230 ft 259 kts 286°
2026-05-03 20:45 49.21332 -122.56418 6180 ft 267 kts 266°
2026-05-03 20:45 49.20883 -122.59177 6099 ft 270 kts 248°
2026-05-03 20:45 49.20199 -122.61863 5909 ft 271 kts 249°
2026-05-03 20:46 49.19543 -122.64569 5640 ft 270 kts 250°
2026-05-03 20:46 49.18915 -122.67198 5467 ft 256 kts 250°
2026-05-03 20:46 49.18325 -122.69684 5331 ft 241 kts 250°
2026-05-03 20:46 49.17773 -122.72026 5208 ft 227 kts 250°
2026-05-03 20:47 49.17257 -122.74233 5058 ft 215 kts 250°
2026-05-03 20:47 49.16754 -122.76394 4976 ft 220 kts 250°
2026-05-03 20:47 49.16234 -122.78628 4908 ft 226 kts 253°
2026-05-03 20:47 49.15880 -122.80989 4667 ft 229 kts 266°
2026-05-03 20:48 49.15921 -122.83422 4352 ft 230 kts 278°
2026-05-03 20:48 49.16105 -122.85846 3965 ft 233 kts 279°
2026-05-03 20:48 49.16352 -122.88268 3780 ft 227 kts 280°
2026-05-03 20:48 49.16614 -122.90660 3366 ft 233 kts 282°
2026-05-03 20:49 49.16899 -122.93071 3175 ft 226 kts 282°
2026-05-03 20:49 49.17218 -122.95320 2950 ft 205 kts 286°
2026-05-03 20:49 49.17553 -122.97337 2724 ft 186 kts 287°
2026-05-03 20:49 49.17849 -122.99201 2438 ft 174 kts 285°
2026-05-03 20:50 49.18161 -123.00947 2071 ft 164 kts 286°
2026-05-03 20:50 49.18436 -123.02591 1705 ft 154 kts 283°
2026-05-03 20:50 49.18658 -123.04137 1445 ft 141 kts 280°
2026-05-03 20:50 49.18832 -123.05566 1414 ft 141 kts 279°
2026-05-03 20:51 49.19009 -123.07040 1305 ft 141 kts 282°
2026-05-03 20:51 49.19178 -123.08517 1172 ft 139 kts 279°
2026-05-03 20:51 49.19348 -123.09964 868 ft 137 kts 283°
2026-05-03 20:51 49.19519 -123.11365 602 ft 132 kts 282°
2026-05-03 20:52 49.19672 -123.12741 416 ft 130 kts 282°
2026-05-03 20:52 49.19829 -123.14094 289 ft 129 kts 284°
2026-05-03 20:52 49.19980 -123.15403 132 ft 124 kts 287°
2026-05-03 20:52 49.20136 -123.16761 60 ft 139 kts 286°
2026-05-03 20:53 49.20308 -123.18275 47 ft 138 kts 285°
2026-05-03 20:53 49.20448 -123.19447 27 ft 68 kts 279°
2026-05-03 20:53 49.20500 -123.19930 27 ft 30 kts 282°
2026-05-03 20:53 49.20465 -123.20116 27 ft 19 kts 194°
2026-05-03 20:54 49.20312 -123.20066 27 ft 28 kts 126°
2026-05-03 20:54 49.20233 -123.19465 27 ft 32 kts 102°
2026-05-03 20:54 49.20198 -123.19171 27 ft 28 kts 99°
2026-05-03 20:55 49.20170 -123.18899 27 ft 24 kts 101°
2026-05-03 20:55 49.20141 -123.18658 27 ft 19 kts 100°
2026-05-03 20:55 49.20082 -123.18510 27 ft 18 kts 174°
2026-05-03 20:55 49.19949 -123.18538 27 ft 20 kts 192°
2026-05-03 20:56 49.19805 -123.18577 27 ft 21 kts 191°
2026-05-03 20:56 49.19744 -123.18615 27 ft 9 kts 221°
2026-05-03 20:56 49.19691 -123.18674 27 ft 11 kts 203°
2026-05-03 20:56 49.19619 -123.18661 27 ft 12 kts 118°